San Lorenzo, CA

9:07 AM PST on February 14, 2016 (GMT -0800)
Hayward Executive

Weather History for KHWD - November, 2012

Change the Weather History Date:

Friday, November 9, 2012

  Actual Average Record
Temperature  
Mean Temperature 51 °F 57 °F  
Max Temperature 57 °F 66 °F 76 °F (2001)
Min Temperature 44 °F 49 °F 41 °F (1998)
Degree Days  
Heating Degree Days 14    
Month to date heating degree days 45  
Since 1 July heating degree days 247  
Cooling Degree Days 0    
Month to date cooling degree days 7  
Year to date cooling degree days 191  
Moisture  
Dew Point 41 °F    
Average Humidity 70    
Maximum Humidity 92    
Minimum Humidity 47    
Precipitation  
Precipitation 0.10 in - 0.20 in (2015)
Month to date precipitation 0.31  
Year to date precipitation 9.77  
Since 1 July precipitation 0.65  
Sea Level Pressure  
Sea Level Pressure 29.96 in    
Wind  
Wind Speed 7 mph (NNW)    
Max Wind Speed 17 mph    
Max Gust Speed 23 mph    
Visibility 10 miles    
Events Rain , Thunderstorm    
T = Trace of Precipitation, MM = Missing Value Source: NWS Daily Summary

Daily Weather History Graph

Daily Weather History Graph

Search for Another Location

Airport or City:

Trip Planner

Search our weather history database for the weather conditions in past years. The results will help you decide how hot, cold, wet, or windy it might be!

Date:

Astronomy

Nov. 09, 2012 Rise Set
Actual Time 6:42 AM PST 5:01 PM PST
Civil Twilight 6:15 AM PST 5:29 PM PST
Nautical Twilight 5:43 AM PST 6:00 PM PST
Astronomical Twilight 5:12 AM PST 6:31 PM PST
Moon 1:52 AM PST (11/9) 2:13 PM PST (11/9)
Length of Visible Light 11h 14m
Length of Day
10h 18m
Waning Crescent, 22% of the Moon is Illuminated
Nov 9
Waning Crescent
Nov 13
New
Nov 20
First Quarter
Nov 28
Full
Dec 6
Last Quarter

Hourly Weather History & Observations

Time (PST) Temp. Windchill Dew Point Humidity Pressure Visibility Wind Dir Wind Speed Gust Speed Precip Events Conditions
12:54 AM 48.9 °F - 43.0 °F 80% 29.94 in 10.0 mi SE 9.2 mph - N/A   Overcast
1:45 AM 48.2 °F - 42.8 °F 82% 29.91 in 8.0 mi NE 6.9 mph 23.0 mph 0.00 in Rain , Thunderstorm Light Thunderstorms and Rain
1:54 AM 50.0 °F - 43.0 °F 77% 29.94 in 10.0 mi Variable 4.6 mph - 0.00 in Rain Light Rain
2:07 AM 48.2 °F - 42.8 °F 82% 29.90 in 10.0 mi SSE 4.6 mph - 0.00 in   Overcast
2:18 AM 48.2 °F - 42.8 °F 82% 29.90 in 10.0 mi SE 5.8 mph - 0.00 in   Overcast
2:51 AM 48.2 °F - 44.6 °F 87% 29.90 in 10.0 mi ESE 5.8 mph - 0.00 in   Overcast
2:54 AM 48.0 °F - 44.1 °F 86% 29.93 in 10.0 mi ESE 8.1 mph - 0.00 in   Overcast
3:20 AM 46.4 °F 42.4 °F 42.8 °F 87% 29.90 in 2.5 mi North 8.1 mph 23.0 mph 0.10 in Rain Light Rain
3:24 AM 46.4 °F 43.5 °F 42.8 °F 87% 29.90 in 9.0 mi NNE 5.8 mph - 0.10 in Rain Light Rain
3:43 AM 46.4 °F 45.2 °F 42.8 °F 87% 29.90 in 10.0 mi NE 3.5 mph - 0.10 in   Mostly Cloudy
3:54 AM 46.9 °F - 43.0 °F 86% 29.93 in 10.0 mi East 4.6 mph - 0.10 in   Mostly Cloudy
4:54 AM 45.0 °F 43.5 °F 42.1 °F 90% 29.94 in 10.0 mi North 3.5 mph - N/A   Partly Cloudy
5:54 AM 45.0 °F - 43.0 °F 93% 29.95 in 10.0 mi Calm Calm - N/A   Scattered Clouds
6:54 AM 44.1 °F 41.5 °F 41.0 °F 89% 29.96 in 10.0 mi ENE 4.6 mph - N/A   Clear
7:54 AM 46.0 °F 43.1 °F 42.1 °F 86% 29.97 in 10.0 mi ENE 5.8 mph - N/A   Clear
8:54 AM 50.0 °F - 43.0 °F 77% 29.98 in 10.0 mi East 3.5 mph - N/A   Clear
9:54 AM 52.0 °F - 43.0 °F 71% 29.99 in 10.0 mi Variable 3.5 mph - N/A   Clear
10:54 AM 53.1 °F - 41.0 °F 64% 29.99 in 10.0 mi WNW 4.6 mph - N/A   Scattered Clouds
11:54 AM 54.0 °F - 39.9 °F 59% 29.98 in 10.0 mi West 6.9 mph - N/A   Scattered Clouds
12:54 PM 55.9 °F - 39.9 °F 55% 29.96 in 10.0 mi West 9.2 mph - N/A   Scattered Clouds
1:54 PM 55.9 °F - 39.0 °F 53% 29.96 in 10.0 mi WNW 11.5 mph - N/A   Scattered Clouds
2:54 PM 57.0 °F - 37.9 °F 49% 29.96 in 10.0 mi WNW 13.8 mph - N/A   Clear
3:54 PM 55.0 °F - 39.0 °F 55% 29.96 in 10.0 mi WNW 11.5 mph - N/A   Clear
4:54 PM 53.1 °F - 37.9 °F 57% 29.97 in 10.0 mi WNW 11.5 mph - N/A   Clear
5:54 PM 52.0 °F - 39.9 °F 63% 29.98 in 10.0 mi WNW 9.2 mph - N/A   Clear
6:54 PM 52.0 °F - 39.9 °F 63% 29.99 in 10.0 mi WNW 9.2 mph - N/A   Clear
7:54 PM 52.0 °F - 41.0 °F 66% 30.00 in 10.0 mi WNW 8.1 mph - N/A   Partly Cloudy
8:54 PM 51.1 °F - 42.1 °F 71% 30.01 in 10.0 mi NW 5.8 mph - N/A   Mostly Cloudy
9:54 PM 51.1 °F - 41.0 °F 68% 30.02 in 10.0 mi NW 6.9 mph - N/A   Mostly Cloudy
10:21 PM 50.0 °F - 41.0 °F 71% 29.99 in 10.0 mi NW 5.8 mph - N/A   Mostly Cloudy
10:54 PM 50.0 °F - 39.9 °F 68% 30.02 in 10.0 mi NNW 4.6 mph - N/A   Scattered Clouds
11:13 PM 50.0 °F - 41.0 °F 71% 29.99 in 10.0 mi NW 3.5 mph - N/A   Mostly Cloudy
11:37 PM 48.2 °F - 39.2 °F 71% 29.99 in 10.0 mi Calm Calm - N/A   Partly Cloudy
11:54 PM 48.0 °F - 39.9 °F 74% 30.02 in 10.0 mi Calm Calm - N/A   Partly Cloudy